When you browse on this site, cookies collect data to enhance your experience and personalize the content and advertising you see.
Visit our Privacy Policy to learn more. By continuing to use the site, you agree to this use of cookies and data.
  • In Austria
  • List of Countries
  • For 7 days
  • Water Temperature
  • Weather Map
  • News
  • Weather Widgets
  • user-avatar
    Login

    Hourly Weather Molango

    Today, 17 September, Tuesday

    Time Temperature Precipitation Wind Pressure Humidity
    00:00 +14°C° 0 mm 1 mps 610 mmHg 94%
    01:00 +14°C° 0 mm 1 mps 610 mmHg 94%
    02:00 +14°C° 0 mm 1 mps 610 mmHg 93%
    03:00 +13°C° 0 mm 1 mps 609 mmHg 93%
    04:00 +13°C° 0 mm 1 mps 609 mmHg 93%
    05:00 +13°C° 0 mm 1 mps 610 mmHg 95%
    06:00 +15°C° 0 mm 1 mps 611 mmHg 90%
    07:00 +16°C° 0 mm 0 mps 612 mmHg 85%
    08:00 +17°C° 0 mm 0 mps 613 mmHg 80%
    09:00 +20°C° 0.2 mm 1 mps 613 mmHg 77%
    10:00 +21°C° 0.2 mm 1 mps 613 mmHg 74%
    11:00 +21°C° 0.2 mm 2 mps 613 mmHg 71%
    12:00 +21°C° 0.3 mm 2 mps 612 mmHg 74%
    13:00 +21°C° 0.3 mm 2 mps 612 mmHg 77%
    14:00 +21°C° 0.3 mm 2 mps 611 mmHg 80%
    15:00 +20°C° 0.3 mm 2 mps 610 mmHg 84%
    16:00 +19°C° 0.3 mm 2 mps 610 mmHg 88%
    17:00 +19°C° 0.3 mm 1 mps 610 mmHg 92%
    18:00 +18°C° 0.1 mm 1 mps 610 mmHg 94%
    19:00 +16°C° 0.1 mm 1 mps 610 mmHg 96%
    20:00 +15°C° 0.1 mm 0 mps 611 mmHg 98%
    21:00 +14°C° 0 mm 0 mps 611 mmHg 98%
    22:00 +14°C° 0 mm 0 mps 610 mmHg 97%
    23:00 +14°C° 0 mm 0 mps 610 mmHg 97%

    Tomorrow, 18 September, Wednesday

    Time Temperature Precipitation Wind Pressure Humidity
    00:00 +14°C° 0 mm 0 mps 610 mmHg 96%
    01:00 +14°C° 0 mm 0 mps 610 mmHg 96%
    02:00 +14°C° 0 mm 0 mps 609 mmHg 95%
    03:00 +14°C° 0 mm 0 mps 609 mmHg 95%
    04:00 +13°C° 0 mm 0 mps 609 mmHg 94%
    05:00 +13°C° 0 mm 0 mps 609 mmHg 94%
    06:00 +15°C° 0 mm 0 mps 610 mmHg 90%
    07:00 +16°C° 0 mm 0 mps 611 mmHg 86%
    08:00 +17°C° 0 mm 0 mps 612 mmHg 83%
    09:00 +20°C° 0.1 mm 1 mps 612 mmHg 79%
    10:00 +21°C° 0.1 mm 1 mps 612 mmHg 75%
    11:00 +21°C° 0.1 mm 2 mps 612 mmHg 71%
    12:00 +21°C° 1.1 mm 2 mps 611 mmHg 76%
    13:00 +20°C° 1.1 mm 2 mps 610 mmHg 81%
    14:00 +20°C° 1.1 mm 2 mps 609 mmHg 86%
    15:00 +19°C° 0.8 mm 2 mps 609 mmHg 89%
    16:00 +20°C° 0.8 mm 1 mps 609 mmHg 91%
    17:00 +19°C° 0.8 mm 1 mps 609 mmHg 93%
    18:00 +18°C° 0.8 mm 1 mps 609 mmHg 95%
    19:00 +16°C° 0.8 mm 1 mps 610 mmHg 96%
    20:00 +15°C° 0.8 mm 0 mps 610 mmHg 97%
    21:00 +15°C° 1.3 mm 0 mps 610 mmHg 97%
    22:00 +15°C° 1.3 mm 0 mps 610 mmHg 97%
    23:00 +15°C° 1.3 mm 0 mps 610 mmHg 96%

    Day after tomorrow, 19 September, Thursday

    Time Temperature Precipitation Wind Pressure Humidity
    00:00 +14°C° 0.5 mm 0 mps 609 mmHg 96%
    01:00 +14°C° 0.5 mm 0 mps 609 mmHg 97%
    02:00 +14°C° 0.5 mm 0 mps 609 mmHg 97%
    03:00 +14°C° 0.5 mm 0 mps 609 mmHg 97%
    04:00 +14°C° 0.5 mm 0 mps 609 mmHg 97%
    05:00 +14°C° 0.5 mm 0 mps 609 mmHg 96%
    06:00 +15°C° 0 mm 0 mps 609 mmHg 93%
    07:00 +16°C° 0 mm 0 mps 610 mmHg 90%
    08:00 +17°C° 0 mm 0 mps 611 mmHg 87%
    09:00 +20°C° 0.3 mm 1 mps 611 mmHg 86%
    10:00 +20°C° 0.3 mm 1 mps 610 mmHg 84%
    11:00 +20°C° 0.3 mm 2 mps 610 mmHg 83%
    12:00 +20°C° 0.6 mm 2 mps 610 mmHg 82%
    13:00 +20°C° 0.6 mm 2 mps 610 mmHg 81%
    14:00 +20°C° 0.6 mm 2 mps 609 mmHg 81%
    15:00 +20°C° 0.2 mm 2 mps 609 mmHg 84%
    16:00 +19°C° 0.2 mm 2 mps 609 mmHg 88%
    17:00 +19°C° 0.2 mm 1 mps 608 mmHg 92%
    18:00 +18°C° 0.1 mm 1 mps 609 mmHg 94%
    19:00 +16°C° 0.1 mm 1 mps 609 mmHg 96%
    20:00 +15°C° 0.1 mm 1 mps 609 mmHg 98%
    21:00 +15°C° 0 mm 1 mps 609 mmHg 97%
    22:00 +15°C° 0 mm 1 mps 609 mmHg 96%
    23:00 +15°C° 0 mm 1 mps 609 mmHg 95%

    20 September, Friday

    Time Temperature Precipitation Wind Pressure Humidity
    00:00 +15°C° 0 mm 1 mps 609 mmHg 95%
    01:00 +14°C° 0 mm 1 mps 609 mmHg 95%
    02:00 +13°C° 0 mm 0 mps 608 mmHg 94%
    03:00 +13°C° 0 mm 0 mps 608 mmHg 95%
    04:00 +13°C° 0 mm 0 mps 608 mmHg 95%
    05:00 +12°C° 0 mm 0 mps 608 mmHg 95%
    06:00 +14°C° 0 mm 0 mps 609 mmHg 90%
    07:00 +16°C° 0 mm 0 mps 610 mmHg 84%
    08:00 +17°C° 0 mm 0 mps 611 mmHg 79%
    09:00 +21°C° 0 mm 1 mps 612 mmHg 72%
    10:00 +22°C° 0 mm 1 mps 612 mmHg 64%
    11:00 +24°C° 0 mm 2 mps 612 mmHg 57%
    12:00 +23°C° 0.1 mm 2 mps 611 mmHg 61%
    13:00 +22°C° 0.1 mm 3 mps 611 mmHg 64%
    14:00 +22°C° 0.1 mm 3 mps 610 mmHg 68%
    15:00 +20°C° 0.2 mm 2 mps 610 mmHg 75%
    16:00 +19°C° 0.2 mm 2 mps 610 mmHg 82%
    17:00 +18°C° 0.2 mm 2 mps 609 mmHg 90%
    18:00 +18°C° 0.3 mm 1 mps 610 mmHg 92%
    19:00 +16°C° 0.3 mm 1 mps 610 mmHg 95%
    20:00 +14°C° 0.3 mm 0 mps 610 mmHg 98%
    21:00 +14°C° 0.1 mm 0 mps 610 mmHg 97%
    22:00 +14°C° 0.1 mm 0 mps 611 mmHg 97%
    23:00 +14°C° 0.1 mm 0 mps 611 mmHg 96%

    21 September, Saturday

    Time Temperature Precipitation Wind Pressure Humidity
    00:00 +14°C° 0 mm 0 mps 610 mmHg 95%
    01:00 +14°C° 0 mm 0 mps 610 mmHg 94%
    02:00 +14°C° 0 mm 0 mps 610 mmHg 94%
    03:00 +13°C° 0 mm 0 mps 610 mmHg 93%
    04:00 +13°C° 0 mm 0 mps 610 mmHg 93%
    05:00 +13°C° 0 mm 0 mps 610 mmHg 93%
    06:00 +14°C° 0 mm 0 mps 611 mmHg 88%
    07:00 +16°C° 0 mm 0 mps 611 mmHg 83%
    08:00 +18°C° 0 mm 0 mps 612 mmHg 78%
    09:00 +21°C° 0.1 mm 1 mps 612 mmHg 74%
    10:00 +21°C° 0.1 mm 2 mps 612 mmHg 69%
    11:00 +23°C° 0.1 mm 2 mps 612 mmHg 64%
    12:00 +21°C° 0.2 mm 2 mps 612 mmHg 68%
    13:00 +21°C° 0.2 mm 2 mps 611 mmHg 72%
    14:00 +21°C° 0.2 mm 2 mps 610 mmHg 77%
    15:00 +20°C° 0.4 mm 2 mps 610 mmHg 81%
    16:00 +19°C° 0.4 mm 2 mps 610 mmHg 86%
    17:00 +19°C° 0.4 mm 1 mps 610 mmHg 91%
    18:00 +18°C° 0.1 mm 1 mps 610 mmHg 93%
    19:00 +16°C° 0.1 mm 1 mps 610 mmHg 95%
    20:00 +14°C° 0.1 mm 0 mps 610 mmHg 97%
    21:00 +13°C° 0 mm 0 mps 610 mmHg 97%
    22:00 +14°C° 0 mm 1 mps 610 mmHg 96%
    23:00 +14°C° 0 mm 1 mps 610 mmHg 95%

    22 September, Sunday

    Time Temperature Precipitation Wind Pressure Humidity
    00:00 +14°C° 0 mm 1 mps 610 mmHg 95%
    01:00 +13°C° 0 mm 1 mps 610 mmHg 94%
    02:00 +13°C° 0 mm 1 mps 609 mmHg 93%
    03:00 +13°C° 0 mm 1 mps 609 mmHg 93%
    04:00 +12°C° 0 mm 1 mps 609 mmHg 93%
    05:00 +12°C° 0 mm 1 mps 609 mmHg 93%
    06:00 +14°C° 0 mm 1 mps 610 mmHg 86%
    07:00 +16°C° 0 mm 0 mps 611 mmHg 79%
    08:00 +18°C° 0 mm 0 mps 613 mmHg 72%
    09:00 +21°C° 0 mm 1 mps 613 mmHg 67%
    10:00 +22°C° 0 mm 1 mps 613 mmHg 63%
    11:00 +23°C° 0 mm 2 mps 613 mmHg 59%
    12:00 +23°C° 0.1 mm 2 mps 612 mmHg 65%
    13:00 +21°C° 0.1 mm 2 mps 611 mmHg 71%
    14:00 +21°C° 0.1 mm 3 mps 610 mmHg 76%
    15:00 +20°C° 0.2 mm 2 mps 610 mmHg 81%
    16:00 +19°C° 0.2 mm 2 mps 610 mmHg 86%
    17:00 +19°C° 0.2 mm 1 mps 610 mmHg 90%
    18:00 +18°C° 0.1 mm 1 mps 610 mmHg 92%
    19:00 +16°C° 0.1 mm 1 mps 610 mmHg 94%
    20:00 +14°C° 0.1 mm 0 mps 610 mmHg 96%
    21:00 +14°C° 0 mm 0 mps 610 mmHg 96%
    22:00 +14°C° 0 mm 0 mps 610 mmHg 95%
    23:00 +13°C° 0 mm 0 mps 610 mmHg 95%
    Show more